Wind_Speed
16 15 15 15 14 15 16 14 13 14 15 15 15 15 15 15 15 15 15 14 14 15 15 16 17 17 16 16 16 16 16 16 17 17 17 16 17 17 18 19 19 18 19
16 16 17 16 16 16 17 15 14 15 15 15 14 15 15 15 15 15 15 14 14 15 16 16 16 16 16 17 17 17 17 17 16 16 17 17 17 17 18 19 19 19 19
15 16 16 16 16 16 16 15 14 15 15 15 15 15 15 16 16 16 16 16 15 16 16 16 17 17 18 18 17 17 18 17 16 17 18 18 18 18 18 19 20 20 20
14 15 16 16 16 16 15 14 14 15 15 15 15 16 16 16 17 17 17 17 16 17 17 16 17 17 17 17 17 17 17 16 17 17 18 18 18 18 19 19 20 21 21
14 14 16 16 16 16 15 15 14 15 15 15 15 16 16 16 17 17 17 16 16 16 16 16 16 16 16 16 17 16 16 16 17 17 17 18 19 19 19 19 20 21 22
13 14 15 15 14 14 14 13 13 13 14 13 14 15 15 16 15 15 15 14 15 15 15 15 15 16 16 16 16 16 16 16 17 17 18 18 18 19 20 21 21 22 23
13 14 14 14 13 14 14 13 13 12 13 12 13 13 13 14 14 14 14 14 14 14 14 15 14 15 15 15 15 16 16 16 17 18 18 18 19 20 21 22 22 23 23
12 13 14 13 12 13 14 13 11 12 12 12 12 12 12 12 13 12 12 12 12 12 13 13 14 14 13 14 15 16 16 16 17 18 18 19 20 20 21 22 22 23 23
12 12 12 12 12 12 12 11 11 12 12 12 11 12 12 12 12 12 11 11 10 10 10 11 12 12 12 13 14 15 15 16 16 17 19 19 19 19 20 22 22 22 23
10 11 11 11 11 11 11 11 10 11 12 12 11 10 11 11 11 11 10 9 9 9 9 10 10 11 12 13 13 14 15 16 17 18 19 19 19 20 20 21 22 22 23
9 11 10 10 10 10 10 10 10 9 10 10 10 10 10 9 9 9 8 9 9 9 9 9 10 11 12 12 12 13 14 15 16 17 18 19 19 19 19 20 21 22 22
10 10 10 10 9 9 10 9 9 9 9 9 9 9 9 9 8 8 8 8 8 8 8 9 10 11 11 11 12 13 14 15 16 17 18 19 19 19 19 20 20 21 22
9 9 9 8 8 9 10 10 9 9 8 8 8 8 8 8 8 8 7 8 8 8 8 9 10 10 11 11 12 13 14 15 16 16 18 18 18 18 18 19 20 21 22
8 8 8 8 9 9 10 9 9 8 8 7 7 8 8 8 7 7 7 7 7 8 8 8 9 10 11 12 12 12 13 15 16 16 16 16 17 18 18 19 20 21 22
8 8 9 9 9 10 9 8 8 7 7 7 7 7 7 7 6 6 6 6 7 7 7 8 9 10 10 11 11 12 13 15 16 16 15 15 17 18 18 19 20 21 22
8 9 10 10 10 9 8 7 8 7 7 7 7 7 7 6 6 6 6 6 7 7 7 8 8 9 9 10 11 12 13 14 15 14 14 15 17 18 19 20 21 22 22
8 9 9 9 9 8 7 8 8 8 7 6 7 7 7 6 6 5 6 7 7 7 7 7 7 8 10 11 12 14 15 15 15 14 15 16 17 18 19 21 21 22 22
8 9 8 8 8 8 8 8 8 7 7 6 6 7 7 6 5 5 6 7 7 6 7 7 8 10 12 13 15 15 15 16 16 16 16 17 17 18 20 21 21 21 22
8 9 8 8 8 9 9 8 8 7 7 7 7 6 6 6 5 5 6 6 7 7 8 9 10 12 13 14 15 15 16 17 17 16 16 17 18 18 19 20 21 22 22
7 8 8 8 9 9 9 8 8 8 7 6 6 6 6 6 6 6 7 7 7 8 9 10 12 13 14 15 15 16 16 16 17 17 16 16 17 18 19 20 21 22 22
7 8 8 8 9 9 9 8 8 8 7 6 6 6 6 6 7 7 7 8 9 9 10 12 12 13 14 15 15 16 16 16 17 17 16 17 18 18 19 20 21 22 22
7 8 8 8 8 8 8 8 8 7 6 6 6 6 7 7 7 8 8 9 10 11 11 12 13 14 15 16 16 16 16 17 17 17 17 18 18 18 19 20 21 22 22
8 8 8 7 8 8 8 7 7 7 7 7 7 7 7 7 8 9 9 10 11 12 13 14 15 16 16 16 16 16 16 16 17 17 18 18 19 19 20 21 21 22 22
8 8 8 7 8 8 8 8 7 7 7 7 8 8 8 8 8 9 10 11 12 13 14 15 16 16 16 16 15 15 15 16 16 17 18 19 19 20 20 21 22 22 22
8 8 8 9 8 8 8 8 7 7 7 7 8 9 9 10 10 10 11 12 13 14 15 15 16 16 16 16 15 15 15 16 17 18 19 19 20 20 20 21 21 21 21
8 8 9 9 9 9 9 8 8 7 8 8 9 10 10 11 11 11 12 13 14 14 15 15 15 15 15 15 15 15 16 17 17 18 19 19 19 20 20 20 21 21 20
Wind_Direction
297 294 294 295 292 289 289 290 290 291 289 288 285 284 283 281 281 283 284 281 276 275 273 264 261 263 265 264 267 268 268 266 267 267 269 271 273 274 273 273 272 275 276
300 298 295 296 291 291 291 287 289 291 287 285 286 286 286 286 286 286 284 281 280 279 277 270 263 261 262 265 268 270 265 267 267 268 269 270 271 273 273 274 276 276 277
303 302 299 293 292 293 291 286 286 286 285 285 286 285 288 286 288 289 286 283 283 281 278 273 270 266 265 265 267 268 268 265 267 269 271 271 271 273 272 273 275 277 277
304 303 300 297 295 294 289 284 285 286 285 285 287 286 287 286 286 285 287 284 281 279 276 273 272 265 264 263 264 267 269 266 267 271 273 273 275 277 278 275 276 278 279
302 301 299 298 297 295 290 288 287 288 285 285 286 288 288 288 287 287 289 287 283 279 277 274 272 267 266 267 266 267 269 270 270 272 275 277 278 279 281 279 279 280 280
303 300 298 300 301 299 295 292 290 288 288 287 288 290 290 290 289 290 288 285 281 279 278 277 272 269 268 269 270 268 269 272 273 273 275 278 279 279 281 283 281 280 281
305 305 305 305 303 302 298 293 291 293 291 290 292 294 293 293 291 289 286 282 281 280 276 275 271 272 271 269 270 270 271 273 276 275 276 280 281 282 284 286 284 282 282
309 307 307 309 304 305 306 296 294 292 293 295 296 295 294 293 293 291 289 284 281 279 275 274 272 273 274 273 272 273 275 276 277 277 279 282 284 286 287 289 290 287 285
310 309 308 312 309 308 308 304 298 295 297 297 296 296 295 293 291 289 288 288 284 282 278 275 274 275 277 277 278 277 276 277 280 282 282 286 287 289 291 291 292 291 289
320 319 315 313 313 313 312 311 303 299 297 296 300 301 301 298 293 289 287 286 283 282 281 278 280 281 281 281 281 279 278 278 281 284 284 288 291 292 293 293 292 293 293
325 327 323 316 315 315 316 314 309 305 300 297 300 303 306 305 299 296 289 285 283 283 284 284 285 287 287 284 283 283 281 281 283 285 288 291 293 292 293 293 293 295 296
328 327 322 318 319 320 320 317 313 310 307 302 299 302 305 307 305 299 291 287 289 287 284 286 288 290 288 286 287 290 288 287 287 289 292 293 292 293 293 294 295 297 299
332 329 325 323 324 325 323 317 316 316 317 315 310 306 304 302 304 301 295 288 289 290 289 289 291 294 298 295 294 295 295 294 294 295 296 294 295 297 297 298 299 301 301
329 329 328 327 327 328 325 324 319 317 320 319 317 315 311 306 307 306 301 291 293 293 293 297 299 303 305 304 298 299 300 302 302 301 300 299 299 300 300 302 303 303 303
326 326 327 328 332 330 328 329 329 325 325 326 328 328 318 314 312 309 300 294 299 304 301 299 306 313 312 307 303 304 306 306 305 305 303 302 303 303 304 305 306 305 304
329 328 326 328 331 331 332 338 339 334 328 329 331 333 330 320 313 304 301 299 303 305 302 305 309 316 319 313 308 310 312 312 312 310 306 304 304 304 305 306 307 306 306
331 331 330 331 335 336 337 338 337 335 332 332 332 334 337 332 317 302 300 305 308 307 308 313 320 325 326 324 318 316 318 318 317 315 310 308 306 305 308 307 308 308 309
331 334 335 338 341 343 338 334 334 333 334 335 336 335 335 338 334 324 318 317 314 315 318 320 319 319 320 318 317 318 320 319 318 315 311 308 308 309 310 309 309 310 311
329 334 335 336 341 342 338 336 337 334 329 329 333 334 334 333 329 325 328 324 321 320 319 319 317 318 319 319 321 322 322 322 320 315 313 312 311 312 313 314 315 315 313
327 332 331 330 333 335 334 335 336 333 330 329 331 332 332 329 325 322 324 322 321 320 319 320 318 318 321 323 324 323 322 323 322 319 316 316 316 315 315 317 319 318 316
324 330 331 331 333 334 333 330 333 332 330 330 332 333 333 327 325 323 321 320 320 320 320 323 323 324 325 324 324 324 323 324 325 322 319 318 318 317 316 317 319 320 319
316 322 325 329 333 336 336 334 335 335 333 333 334 333 331 328 326 325 324 324 323 323 323 323 323 324 326 326 324 325 325 326 328 327 324 322 321 320 321 320 321 321 323
316 319 321 325 330 333 334 334 331 334 334 332 330 330 328 323 323 323 325 325 325 323 321 321 322 324 324 324 324 324 325 326 328 328 327 325 325 324 323 322 321 322 323
312 316 319 320 324 326 327 329 331 330 325 326 327 328 328 322 320 322 323 324 324 323 321 321 323 324 324 323 323 325 327 327 328 330 330 330 327 326 325 325 325 325 325
308 312 317 318 316 318 321 323 325 325 325 328 328 325 326 325 321 325 324 324 324 323 324 325 326 327 327 326 326 328 328 328 327 330 331 331 332 332 330 329 330 329 329
301 306 310 313 314 315 314 315 316 318 320 321 322 324 324 326 324 328 329 326 323 324 325 326 327 327 327 326 326 326 327 327 327 328 331 332 332 333 334 334 334 334 333
Height
5835 5834 5833 5832 5831 5830 5828 5828 5828 5827 5827 5826 5825 5824 5823 5822 5820 5819 5818 5818 5817 5816 5816 5816 5816 5816 5816 5816 5816 5817 5817 5817 5816 5816 5816 5816 5816 5815 5815 5814 5813 5812 5811
5832 5831 5830 5829 5827 5826 5825 5824 5824 5824 5823 5822 5821 5820 5819 5817 5817 5815 5814 5813 5813 5812 5812 5811 5811 5811 5811 5811 5811 5812 5812 5812 5811 5811 5811 5811 5812 5811 5810 5809 5808 5807 5806
5829 5828 5826 5825 5824 5822 5821 5820 5820 5820 5819 5818 5817 5816 5815 5814 5812 5811 5810 5809 5808 5807 5807 5806 5806 5806 5806 5806 5807 5807 5806 5806 5806 5807 5807 5806 5806 5806 5806 5804 5803 5802 5801
5826 5825 5823 5821 5820 5819 5818 5816 5816 5815 5815 5813 5812 5812 5811 5810 5808 5807 5806 5804 5803 5803 5802 5801 5801 5801 5801 5801 5802 5802 5802 5802 5802 5802 5802 5802 5801 5801 5800 5799 5798 5796 5795
5823 5822 5820 5818 5817 5815 5814 5812 5811 5810 5809 5809 5808 5807 5806 5805 5803 5802 5801 5799 5798 5798 5797 5797 5797 5796 5796 5797 5797 5797 5797 5798 5798 5797 5797 5796 5796 5795 5794 5793 5792 5791 5789
5820 5819 5817 5815 5814 5812 5810 5809 5808 5806 5805 5804 5803 5802 5801 5800 5799 5797 5796 5795 5794 5793 5793 5792 5792 5792 5792 5793 5793 5793 5793 5793 5793 5793 5792 5791 5790 5790 5789 5787 5786 5785 5783
5817 5815 5813 5812 5810 5809 5807 5806 5804 5803 5802 5801 5800 5799 5798 5796 5795 5793 5792 5791 5790 5789 5789 5788 5788 5788 5788 5788 5789 5789 5789 5788 5788 5788 5787 5786 5784 5783 5782 5781 5779 5778 5776
5813 5812 5811 5808 5807 5805 5804 5802 5801 5801 5800 5798 5797 5796 5795 5793 5791 5790 5788 5787 5786 5786 5785 5785 5784 5784 5784 5784 5784 5784 5784 5784 5783 5782 5781 5780 5779 5777 5775 5774 5772 5771 5769
5811 5810 5808 5806 5804 5802 5801 5799 5798 5798 5797 5795 5794 5792 5791 5789 5787 5786 5785 5783 5783 5782 5782 5782 5781 5781 5781 5780 5780 5780 5779 5779 5778 5777 5776 5774 5772 5771 5769 5767 5765 5764 5761
5809 5807 5805 5804 5802 5800 5798 5797 5796 5794 5793 5792 5791 5789 5787 5785 5783 5782 5781 5780 5780 5780 5779 5779 5778 5778 5777 5777 5776 5775 5775 5774 5773 5772 5770 5768 5767 5765 5763 5760 5759 5756 5754
5807 5805 5803 5801 5799 5798 5796 5795 5793 5792 5790 5789 5788 5786 5784 5782 5781 5780 5779 5778 5778 5777 5777 5776 5776 5775 5774 5773 5772 5771 5770 5769 5768 5766 5764 5763 5760 5758 5756 5754 5752 5749 5747
5805 5803 5801 5799 5798 5796 5794 5793 5791 5789 5788 5786 5785 5783 5782 5780 5779 5778 5777 5776 5775 5775 5774 5774 5773 5771 5770 5769 5768 5767 5766 5765 5763 5761 5759 5757 5754 5752 5750 5748 5745 5742 5739
5803 5801 5799 5798 5796 5794 5792 5790 5789 5787 5785 5784 5782 5781 5780 5778 5777 5776 5775 5774 5773 5772 5772 5771 5770 5769 5767 5766 5764 5763 5762 5760 5758 5756 5754 5751 5749 5747 5744 5742 5739 5736 5732
5801 5799 5798 5796 5794 5792 5790 5788 5787 5785 5784 5782 5780 5779 5777 5776 5775 5774 5773 5772 5771 5770 5770 5769 5767 5766 5765 5763 5761 5760 5758 5756 5753 5751 5749 5746 5744 5741 5739 5736 5733 5729 5726
5800 5798 5796 5794 5792 5790 5788 5787 5785 5783 5782 5780 5779 5777 5776 5774 5773 5772 5771 5771 5770 5769 5768 5766 5765 5764 5762 5760 5758 5756 5754 5752 5749 5746 5743 5741 5739 5736 5733 5730 5727 5723 5720
5798 5797 5795 5793 5791 5789 5787 5785 5783 5782 5780 5778 5777 5776 5774 5773 5772 5771 5770 5769 5768 5767 5766 5765 5763 5762 5760 5758 5755 5753 5751 5748 5745 5742 5739 5736 5734 5731 5727 5724 5721 5717 5714
5797 5795 5793 5791 5789 5787 5785 5784 5782 5780 5779 5777 5776 5775 5773 5772 5771 5770 5769 5768 5767 5766 5764 5763 5761 5759 5757 5755 5752 5750 5747 5744 5741 5737 5734 5731 5728 5726 5722 5719 5715 5711 5707
5795 5793 5791 5789 5788 5786 5784 5782 5781 5779 5778 5776 5775 5773 5772 5771 5770 5769 5768 5767 5765 5764 5763 5761 5759 5757 5755 5753 5750 5747 5743 5740 5737 5733 5730 5727 5724 5721 5717 5714 5710 5706 5702
5793 5792 5790 5788 5787 5785 5783 5781 5779 5778 5776 5775 5774 5772 5771 5770 5769 5768 5767 5766 5764 5763 5761 5759 5757 5755 5752 5750 5746 5743 5740 5736 5733 5729 5726 5722 5719 5716 5712 5709 5705 5700 5696
5792 5790 5789 5787 5785 5784 5782 5780 5778 5776 5775 5773 5772 5771 5770 5769 5768 5767 5766 5764 5763 5761 5759 5757 5755 5752 5749 5746 5743 5740 5736 5733 5729 5725 5722 5718 5715 5711 5707 5703 5699 5695 5690
5790 5789 5787 5786 5784 5782 5780 5779 5777 5775 5774 5772 5771 5770 5769 5768 5767 5766 5764 5763 5761 5759 5757 5755 5752 5749 5746 5743 5739 5736 5733 5729 5725 5721 5718 5714 5710 5707 5703 5699 5694 5690 5685
5789 5788 5786 5784 5783 5781 5779 5777 5776 5774 5772 5771 5770 5769 5768 5767 5765 5764 5763 5761 5759 5757 5754 5752 5749 5746 5743 5739 5736 5732 5729 5725 5721 5718 5714 5710 5706 5702 5698 5694 5690 5685 5681
5787 5786 5785 5783 5782 5780 5778 5776 5775 5773 5772 5770 5769 5768 5767 5765 5764 5763 5761 5759 5757 5754 5752 5749 5746 5742 5739 5735 5732 5728 5725 5721 5718 5714 5710 5706 5702 5698 5694 5690 5685 5681 5676
5786 5784 5783 5782 5780 5779 5777 5776 5774 5772 5771 5769 5768 5767 5765 5764 5762 5760 5759 5757 5754 5751 5748 5745 5742 5739 5735 5732 5728 5725 5721 5718 5714 5711 5707 5702 5698 5694 5690 5685 5681 5676 5672
5784 5783 5781 5780 5779 5777 5776 5774 5773 5771 5770 5768 5767 5765 5764 5762 5760 5758 5756 5754 5751 5748 5745 5742 5739 5735 5732 5729 5725 5722 5719 5715 5711 5708 5703 5699 5695 5690 5686 5681 5677 5673 5668
5781 5780 5779 5778 5777 5775 5774 5772 5771 5769 5768 5767 5765 5763 5762 5760 5758 5756 5753 5751 5748 5745 5742 5739 5736 5732 5729 5725 5722 5719 5716 5712 5708 5705 5701 5696 5692 5687 5683 5678 5674 5669 5665